Powrót do katalogu

COSMOS 1375 DEB

AktywnyLEO
NORAD 17108·DEBRIS·🇷🇺 Russia

Wystrzelony Jun 6, 1982 z Plesetsk Cosmodrome

Loading…

Następne Przeloty (najbliższe 24 godziny)

TLE

ŚwieżeSource: Space-Track

Epoka: Sep 14, 2026, 21:51 UTC

1 17108U 82055AK  26257.91087101  .00000238  00000-0  29621-3 0  9992
2 17108  65.8298  74.9650 0026774 265.3424 167.5074 13.82106110 55205

Śledź COSMOS 1375 DEB w czasie rzeczywistym z AllMySat

Download on the App Store